This demonstration page uses our WeatherBlox Daily Observations layout. Learn more.

38.89511, -77.03637

Hourly Observations for July 6, 2017

Temp ( °F °C ) Dew Point ( °F °C ) Humidity (%) Winds ( mph kmh ) Pressure ( in mb ) Visibility ( mi km ) Precip ( " mm )
12:20 am 00:20 Cloudy 75 23.9 73 22.8 94 94 ENE 5 7 30.12 1020 10 16.09344 0 0
12:36 am 00:36 Cloudy with Light Rain 75 23.9 73 22.8 94 94 ENE 5 7 30.12 1020 10 16.09344 0.001 0.001
12:52 am 00:52 Cloudy with Light Rain 75 23.9 73 22.8 94 94 E 6 9 30.09 1019 9 14.484096 0.001 0.001
1:40 am 01:40 Cloudy 75 23.9 73 22.8 94 94 ENE 6 9 30.09 1019 9 14.484096 0.001 0.001
1:52 am 01:52 Cloudy 75 23.9 73 22.8 94 94 ENE 6 9 30.09 1019 9 14.484096 0.001 0.001
2:52 am 02:52 Cloudy 75 23.9 73 22.8 94 94 ENE 9 15 30.06 1018 10 16.09344 0 0
3:44 am 03:44 Cloudy with Light Rain 75 23.9 73 22.8 94 94 ENE 8 13 30.06 1018 9 14.484096 0.001 0.001
3:52 am 03:52 Cloudy with Light Rain 75 23.9 73 22.8 94 94 ENE 8 13 30.06 1018 7 11.265408 0.01 0.254
4:08 am 04:08 Cloudy with Light Rain 74 23.3 73 22.8 97 97 ENE 9 15 30.06 1018 7 11.265408 0.001 0.001
4:20 am 04:20 Cloudy with Light Rain 74 23.3 73 22.8 97 97 ENE 9 15 30.06 1018 7 11.265408 0.01 0.254
4:34 am 04:34 Cloudy with Light Rain 74 23.3 73 22.8 97 97 ENE 9 15 30.06 1018 9 14.484096 0.01 0.254
4:52 am 04:52 Cloudy with Light Rain 74 23.3 73 22.8 97 97 ENE 7 11 30.06 1018 9 14.484096 0.01 0.254
5:26 am 05:26 Cloudy with Rain 75 23.9 73 22.8 94 94 ENE 9 15 30.06 1018 6 9.656064 0.01 0.254
5:38 am 05:38 Cloudy with Rain 75 23.9 73 22.8 94 94 ENE 8 13 30.06 1018 4 6.437376 0.05 1.27
5:52 am 05:52 Cloudy with Heavy Rain 74 23.3 73 22.8 97 97 ENE 9 15 30.03 1017 4 6.437376 0.12 3.048
6:19 am 06:19 Cloudy with Rain 74 23.3 74 23.3 100 100 NE 7 11 30.06 1018 3 4.828032 0.08 2.032
6:36 am 06:36 Cloudy with Rain 74 23.3 73 22.8 97 97 ENE 8 13 30.06 1018 2.5 4.02336 0.14 3.556
6:52 am 06:52 Cloudy with Rain 74 23.3 74 23.3 100 100 ENE 7 11 30.03 1017 2.5 4.02336 0.21 5.334
7:10 am 07:10 Mostly Cloudy with Light Rain 74 23.3 74 23.3 100 100 ENE 7 11 30.06 1018 3 4.828032 0.05 1.27
7:52 am 07:52 Cloudy with Light Rain 75 23.9 73 22.8 94 94 E 5 7 30.06 1018 4 6.437376 0.11 2.794
8:04 am 08:04 Cloudy with Rain 75 23.9 74 23.3 96 96 E 5 7 30.06 1018 4 6.437376 0.03 0.762
8:46 am 08:46 Cloudy with Rain 75 24 73 23 94 94 E 9 15 30.06 1018 2.5 4.02336 0.09 2.286
8:52 am 08:52 Cloudy with Light Rain 75 23.9 74 23.3 96 96 E 9 15 30.06 1018 3 4.828032 0.1 2.54
9:16 am 09:16 Cloudy with Light Rain 75 23.9 74 23.3 96 96 E 7 11 30.06 1018 6 9.656064 0.001 0.001
9:35 am 09:35 Cloudy with Rain 75 23.9 74 23.3 96 96 ENE 8 13 30.06 1018 2.5 4.02336 0.03 0.762
9:49 am 09:49 Cloudy with Rain 75 24 73 23 94 94 ENE 6 9 30.06 1018 3 4.828032 0.06 1.524
9:52 am 09:52 Cloudy with Rain 75 23.9 74 23.3 96 96 NE 6 9 30.06 1018 3 4.828032 0.07 1.778
10:14 am 10:14 Cloudy with Light Rain 76 24.4 74 23.3 94 94 ENE 7 11 30.06 1018 6 9.656064 0.01 0.254
10:39 am 10:39 Cloudy with Rain 76 24.4 74 23.3 94 94 ENE 5 7 30.06 1018 4 6.437376 0.04 1.016
10:47 am 10:47 Cloudy with Rain 75 24 73 23 94 94 ENE 5 7 30.06 1018 2 3.218688 0.07 1.778
10:52 am 10:52 Cloudy with Rain 76 24.4 74 23.3 94 94 E 5 7 30.03 1017 2 3.218688 0.09 2.286
11:01 am 11:01 Cloudy with Rain 76 24.4 74 23.3 94 94 E 6 9 30.06 1018 2 3.218688 0.04 1.016
11:19 am 11:19 Cloudy with Light Rain 76 24.4 75 23.9 97 97 ENE 5 7 30.06 1018 2.5 4.02336 0.08 2.032
11:36 am 11:36 Cloudy with Light Rain 76 24.4 75 23.9 97 97 E 9 15 30.06 1018 2.5 4.02336 0.11 2.794
11:52 am 11:52 Cloudy with Light Rain 77 25 75 23.9 94 94 E 8 13 30.03 1017 3 4.828032 0.11 2.794
12:18 pm 12:18 Cloudy with Light Rain 77 25 75 23.9 94 94 ENE 5 7 30.03 1017 6 9.656064 0.02 0.508
12:52 pm 12:52 Cloudy with Light Rain 78 25.6 75 23.9 90 90 E 6 9 30.03 1017 7 11.265408 0.03 0.762
1:08 pm 13:08 Cloudy 78 25.6 75 23.9 90 90 E 8 13 30.03 1017 10 16.09344 0.001 0.001
1:23 pm 13:23 Cloudy with Light Rain 78 25.6 74 23.3 87 87 E 10 17 30.03 1017 9 14.484096 0.001 0.001
1:34 pm 13:34 Cloudy with Light Rain 77 25 75 23.9 94 94 Calm 30.03 1017 5 8.04672 0.01 0.254
1:44 pm 13:44 Cloudy 79 26.1 75 23.9 88 88 ESE 6 9 30.03 1017 10 16.09344 0.01 0.254
1:52 pm 13:52 Cloudy 79 26.1 75 23.9 88 88 E 8 13 30 1016 10 16.09344 0.01 0.254
2:52 pm 14:52 Cloudy 81 27.2 74 23.3 79 79 ENE 3 6 29.97 1015 10 16.09344 0 0
3:52 pm 15:52 Cloudy with Light Rain 79 26.1 75 23.9 88 88 NNE 10 17 29.94 1014 7 11.265408 0.001 0.001
4:52 pm 16:52 Cloudy 80 26.7 75 23.9 85 85 NNE 12 19 29.94 1014 10 16.09344 0.001 0.001
5:04 pm 17:04 Cloudy 80 26.7 75 23.9 85 85 NNE 13 20 29.97 1015 10 16.09344 0 0
5:52 pm 17:52 Partly Cloudy 79 26.1 74 23.3 85 85 ENE 10 17 29.91 1013 10 16.09344 0 0
6:40 pm 18:40 Mostly Cloudy 79 26.1 74 23.3 85 85 NE 12 19 29.94 1014 10 16.09344 0 0
6:52 pm 18:52 Mostly Cloudy 78 25.6 74 23.3 87 87 ENE 12 19 29.91 1013 10 16.09344 0 0
7:20 pm 19:20 Cloudy 78 25.6 73 22.8 85 85 ENE 12 19 29.94 1014 10 16.09344 0 0
7:34 pm 19:34 Cloudy 78 25.6 73 22.8 85 85 ENE 12 19 29.94 1014 10 16.09344 0 0
7:52 pm 19:52 Cloudy with Nearby Thunderstorms 77 25 73 22.8 88 88 NE 12 19 29.94 1014 10 16.09344 0 0
8:16 pm 20:16 Cloudy with Thunderstorms 77 25 73 22.8 88 88 NE 9 15 29.94 1014 10 16.09344 0 0
8:36 pm 20:36 Cloudy with Thunderstorms 77 25 73 22.8 88 88 NE 8 13 29.94 1014 10 16.09344 0 0
8:52 pm 20:52 Cloudy with Nearby Thunderstorms 77 25 73 22.8 88 88 NNE 7 11 29.94 1014 10 16.09344 0 0
9:05 pm 21:05 Mostly Cloudy 77 25 73 22.8 88 88 NNE 7 11 29.94 1014 10 16.09344 0 0
9:35 pm 21:35 Mostly Cloudy with Light Rain 76 24.4 74 23.3 94 94 NE 5 7 29.94 1014 10 16.09344 0.001 0.001
9:52 pm 21:52 Mostly Cloudy 76 24.4 74 23.3 94 94 ENE 8 13 29.91 1013 10 16.09344 0.001 0.001
10:09 pm 22:09 Mostly Cloudy 76 24.4 74 23.3 94 94 ENE 3 6 29.94 1014 10 16.09344 0 0
10:52 pm 22:52 Mostly Cloudy 75 23.9 74 23.3 96 96 NE 5 7 29.91 1013 10 16.09344 0 0
10:59 pm 22:59 Mostly Cloudy 76 24.4 74 23.3 94 94 NE 3 6 29.91 1013 10 16.09344 0 0
11:55 pm 23:55 Cloudy 75 24 73 23 94 94 NE 5 7 29.91 1013 10 16.09344 0 0

Powered by AerisWeather